Location: Devore Heights
(34.2372°N, 117.4156°W)
Time: 01:47:46
(UTC+00:00)

Vanguard 2 Rocket - Pass Details

Date: 15 September 2024
Orbit: 553 x 3298 km, 32.9° (Epoch: 09 October)

Event Time Altitude Azimuth Distance (km) Brightness Sun altitude
Exits shadow 09:03:57 47° 98° (E) 2,817 9.2 -48.6°
Drops below altitude 10° 09:15:21 10° 80° (E) 5,708 11.3 -47.3°
Sets 09:20:32 0° 78° (ENE) 6,999 11.9 -46.7°
